Vorticity
3 7 4 4 5 6 6 6 10 11 10 9 6 3 3 2 6 6 6 6 7 4 4 1 3 5 7 7 11 7 7 9 5 1 3 9 3 3 6 6 8 8 6 5
7 4 4 3 3 3 5 8 6 4 6 7 8 11 10 5 5 6 5 5 2 3 3 4 4 5 4 8 3 8 9 3 2 6 6 5 6 9 8 8 6 5 5 6
5 5 6 5 4 4 4 7 7 7 6 5 5 5 3 5 6 6 4 4 4 5 6 7 8 5 8 6 4 10 5 -3 5 4 8 8 8 7 6 4 3 6 7 4
3 3 3 5 5 4 5 4 7 9 5 10 7 5 5 7 10 7 5 4 6 7 8 7 6 7 7 4 3 6 5 6 11 9 8 6 6 5 5 3 7 6 6 0
6 7 7 7 6 4 3 5 6 9 10 10 5 5 5 5 5 2 3 6 11 8 7 4 9 7 2 3 5 6 7 9 8 5 4 9 6 4 3 4 4 7 7 8
2 3 5 5 7 9 12 3 3 7 10 10 5 6 3 2 2 6 9 9 7 7 5 7 6 4 6 8 10 13 10 6 5 6 6 4 6 5 4 4 2 1 2 3
6 13 14 10 7 8 11 13 9 7 10 9 6 3 1 6 6 5 6 5 6 7 6 6 7 8 10 9 7 7 6 4 5 6 3 5 4 3 6 7 14 11 9 10
12 14 14 13 12 10 12 13 11 9 7 5 4 5 9 8 9 5 5 5 6 7 6 9 8 7 6 7 7 5 2 -0 4 6 4 1 6 8 6 8 14 11 -14 -3
13 12 11 13 13 11 9 8 7 6 5 6 7 9 9 5 6 7 8 6 9 8 11 6 6 5 7 5 1 -1 2 6 7 7 5 5 6 9 7 7 7 6 4 4
6 6 7 8 7 7 6 7 9 8 9 7 5 10 10 7 5 10 14 9 13 5 4 3 7 6 3 4 3 5 6 7 5 6 7 8 7 9 8 6 1 14 18 6
3 6 5 4 5 6 7 7 6 5 5 6 7 13 5 11 10 8 12 5 7 2 4 7 9 6 4 1 3 6 5 8 8 10 8 10 9 11 4 11 10 2 6 8
11 11 11 10 9 8 8 7 6 8 7 5 6 3 3 8 10 7 5 8 3 7 10 7 6 0 2 7 7 8 6 8 9 10 9 9 8 12 1 15 9 3 -1 6
7 8 7 8 7 7 7 9 8 6 5 3 6 10 11 6 7 3 8 8 7 9 4 0 3 6 6 5 7 7 8 9 9 10 13 11 11 10 9 18 4 -18 8 11
5 6 7 9 11 11 8 7 6 4 4 7 9 10 8 6 6 8 7 7 6 2 3 7 5 3 5 6 7 7 10 12 8 9 18 6 8 14 9 -7 9 11 16 39
1 9 14 6 14 10 16 10 2 10 9 10 5 9 4 6 2 5 6 1 3 7 7 6 2 6 8 7 6 10 9 12 13 13 15 16 12 4 -0 -3 20 32 43 34
3 1 5 14 7 20 13 17 13 10 11 10 8 7 6 5 0 5 4 7 5 4 5 4 9 12 3 0 8 12 14 9 14 6 4 1 11 3 9 36 39 28 24 14
7 3 9 15 13 13 18 13 9 6 9 6 6 6 10 5 8 6 3 4 2 2 3 10 6 4 9 4 12 15 9 9 14 10 -4 1 15 25 40 39 27 11 8 13
1 6 10 11 14 16 26 11 12 11 8 9 9 7 7 6 4 4 6 2 5 4 18 11 4 6 -11 11 9 8 7 14 8 -0 2 20 34 32 19 21 8 13 17 12
3 3 9 11 13 16 28 13 14 11 7 7 7 4 1 2 4 9 4 4 4 10 15 14 2 -1 -13 11 10 12 8 11 13 -1 31 38 32 33 9 10 15 10 8 8
7 13 15 12 12 15 10 5 9 11 8 4 3 4 2 2 1 -0 3 6 10 11 11 15 -0 -12 12 14 13 13 13 6 6 42 36 26 30 5 11 12 10 8 9 12
18 16 13 9 11 14 0 4 2 0 2 3 6 3 3 5 4 2 8 12 19 11 15 -5 -12 14 16 20 14 4 17 22 32 29 27 23 5 12 11 8 10 9 16 20
16 14 9 10 6 4 4 4 1 5 4 4 2 5 4 6 4 9 9 15 19 2 6 14 17 20 16 7 12 16 12 33 24 27 19 8 12 11 8 9 10 15 18 18
23 15 3 2 3 2 1 3 4 3 4 1 11 2 5 7 14 12 11 12 12 10 11 11 17 14 12 8 12 12 27 20 17 25 10 12 11 8 9 9 13 19 18 16
22 13 -0 1 5 2 6 3 4 -2 -0 7 11 5 7 13 12 11 10 11 10 8 11 12 13 7 9 13 10 25 20 11 29 8 11 12 7 10 9 12 18 18 14 16
4 1 3 4 3 4 8 4 0 -1 2 7 8 4 8 9 8 9 14 8 7 13 11 10 8 10 13 8 21 20 14 22 14 11 13 8 9 10 9 16 17 16 20 23
10 8 1 -0 1 2 4 4 4 1 2 6 11 11 10 10 14 8 6 8 10 14 16 11 10 12 11 19 20 7 15 27 10 13 9 8 12 9 12 16 18 20 18 14
Height
5825 5826 5825 5825 5825 5826 5826 5826 5826 5826 5826 5825 5824 5824 5824 5822 5821 5821 5820 5818 5816 5815 5813 5811 5807 5803 5800 5797 5792 5788 5784 5780 5776 5772 5768 5764 5759 5754 5749 5742 5735 5731 5727 5723
5825 5824 5825 5825 5825 5825 5825 5825 5825 5825 5824 5823 5822 5821 5820 5819 5818 5816 5815 5812 5811 5810 5808 5805 5801 5797 5793 5789 5785 5782 5777 5773 5768 5763 5758 5754 5749 5744 5738 5732 5727 5722 5717 5712
5823 5824 5823 5823 5823 5823 5822 5822 5822 5822 5820 5819 5818 5817 5817 5816 5814 5811 5810 5808 5807 5805 5802 5799 5796 5792 5787 5783 5779 5774 5770 5765 5759 5754 5749 5744 5738 5732 5726 5721 5715 5710 5704 5698
5821 5821 5821 5821 5821 5820 5819 5819 5818 5817 5816 5815 5814 5814 5813 5811 5810 5808 5806 5805 5802 5799 5797 5793 5789 5784 5780 5775 5771 5766 5761 5756 5751 5745 5739 5732 5726 5721 5716 5710 5703 5697 5691 5684
5819 5818 5817 5818 5818 5817 5816 5814 5814 5813 5812 5811 5810 5810 5809 5806 5805 5803 5801 5799 5796 5793 5789 5785 5781 5776 5772 5767 5761 5756 5750 5744 5737 5731 5726 5720 5714 5708 5701 5694 5688 5681 5674 5666
5814 5814 5813 5813 5813 5812 5811 5810 5809 5808 5808 5808 5806 5805 5804 5800 5799 5796 5794 5791 5788 5784 5780 5775 5771 5766 5762 5756 5751 5745 5739 5732 5726 5720 5713 5706 5700 5692 5685 5677 5670 5663 5655 5649
5810 5809 5808 5808 5807 5806 5805 5805 5805 5805 5803 5803 5801 5799 5798 5795 5791 5787 5784 5781 5778 5774 5769 5764 5759 5754 5750 5745 5739 5733 5727 5721 5715 5707 5699 5690 5682 5675 5667 5659 5651 5644 5637 5630
5805 5805 5803 5802 5802 5801 5800 5801 5800 5799 5799 5798 5796 5791 5791 5787 5783 5779 5776 5773 5768 5763 5759 5755 5750 5745 5739 5733 5727 5722 5715 5708 5700 5693 5684 5675 5665 5657 5649 5641 5632 5624 5617 5609
5803 5802 5801 5799 5799 5798 5797 5796 5796 5794 5793 5792 5791 5786 5783 5779 5774 5772 5768 5763 5759 5755 5750 5745 5740 5735 5729 5722 5716 5709 5701 5693 5685 5677 5669 5659 5650 5640 5632 5623 5613 5606 5597 5589
5800 5799 5798 5797 5796 5795 5793 5792 5790 5788 5786 5783 5784 5784 5775 5772 5767 5764 5761 5757 5752 5747 5742 5736 5731 5725 5719 5712 5704 5697 5689 5681 5671 5661 5652 5643 5633 5624 5615 5607 5599 5589 5579 5568
5797 5797 5796 5793 5792 5790 5789 5786 5783 5781 5779 5775 5773 5781 5770 5766 5761 5757 5754 5749 5744 5739 5733 5727 5722 5716 5708 5700 5691 5682 5673 5665 5655 5646 5636 5627 5619 5610 5599 5589 5578 5567 5557 5547
5794 5792 5791 5789 5787 5785 5782 5779 5777 5774 5773 5770 5765 5770 5762 5756 5753 5750 5746 5740 5735 5729 5722 5716 5710 5702 5694 5685 5677 5668 5657 5649 5639 5631 5622 5612 5600 5590 5579 5567 5558 5547 5537 5523
5790 5790 5787 5784 5783 5780 5777 5773 5770 5767 5763 5763 5757 5758 5753 5745 5743 5739 5734 5729 5723 5718 5711 5704 5697 5688 5680 5671 5662 5655 5645 5634 5624 5614 5603 5592 5581 5570 5559 5547 5535 5524 5512 5499
5787 5784 5782 5781 5777 5774 5771 5766 5761 5757 5753 5748 5752 5744 5745 5740 5736 5732 5726 5718 5713 5706 5699 5691 5684 5676 5667 5658 5650 5639 5628 5616 5605 5594 5585 5574 5562 5551 5539 5527 5515 5502 5489 5475
5781 5779 5777 5774 5770 5768 5766 5759 5753 5749 5745 5741 5741 5738 5732 5731 5727 5721 5716 5709 5704 5696 5687 5679 5671 5662 5652 5642 5632 5620 5608 5596 5585 5574 5564 5554 5542 5531 5518 5507 5493 5478 5465 5455
5774 5771 5769 5769 5761 5759 5759 5752 5747 5742 5739 5736 5731 5730 5726 5722 5716 5710 5704 5698 5691 5682 5674 5666 5656 5645 5634 5625 5615 5603 5591 5578 5566 5555 5544 5533 5521 5508 5495 5481 5469 5458 5450 5442
5767 5762 5758 5758 5753 5751 5750 5743 5737 5734 5732 5729 5725 5722 5718 5713 5706 5700 5693 5686 5677 5668 5657 5646 5636 5629 5617 5606 5594 5584 5574 5562 5549 5537 5526 5514 5500 5485 5472 5460 5450 5443 5437 5429
5760 5754 5749 5745 5742 5741 5743 5731 5728 5726 5727 5722 5718 5714 5709 5702 5695 5688 5679 5669 5659 5649 5639 5630 5621 5610 5599 5587 5577 5565 5554 5544 5532 5520 5508 5493 5479 5466 5456 5446 5438 5431 5423 5415
5753 5747 5741 5735 5729 5731 5734 5726 5723 5719 5720 5713 5710 5705 5698 5691 5683 5675 5664 5655 5645 5633 5622 5612 5601 5591 5580 5568 5558 5547 5536 5525 5514 5502 5488 5474 5462 5452 5443 5434 5426 5418 5410 5401
5746 5740 5736 5728 5722 5720 5719 5715 5713 5710 5706 5702 5696 5688 5679 5670 5664 5656 5647 5635 5624 5612 5603 5595 5584 5573 5563 5551 5541 5529 5518 5505 5494 5482 5470 5459 5449 5440 5431 5422 5414 5406 5396 5387
5736 5730 5727 5719 5715 5716 5710 5706 5702 5697 5694 5686 5680 5673 5666 5659 5650 5641 5632 5622 5610 5601 5591 5580 5570 5559 5549 5537 5525 5512 5500 5488 5475 5464 5454 5445 5436 5428 5419 5410 5402 5392 5382 5372
5728 5720 5717 5712 5710 5709 5703 5699 5694 5689 5683 5675 5670 5662 5656 5647 5635 5624 5613 5604 5596 5589 5579 5567 5557 5545 5531 5520 5509 5497 5484 5473 5461 5451 5443 5434 5426 5417 5408 5399 5389 5378 5369 5360
5721 5715 5709 5705 5703 5699 5693 5689 5683 5677 5670 5663 5655 5648 5639 5630 5621 5610 5601 5591 5582 5571 5560 5549 5538 5527 5516 5503 5492 5482 5470 5459 5450 5442 5434 5425 5416 5407 5398 5388 5378 5368 5357 5349
5710 5706 5701 5696 5697 5689 5683 5677 5671 5664 5657 5650 5643 5634 5623 5614 5602 5595 5585 5574 5565 5555 5542 5531 5521 5511 5501 5488 5477 5466 5458 5449 5440 5432 5424 5416 5407 5398 5388 5378 5368 5357 5348 5339
5702 5696 5692 5688 5686 5678 5672 5665 5660 5652 5645 5635 5626 5616 5606 5598 5590 5578 5569 5558 5547 5536 5526 5516 5505 5496 5486 5476 5465 5455 5446 5438 5430 5423 5415 5407 5399 5390 5381 5369 5358 5348 5339 5331
5689 5683 5679 5674 5668 5662 5657 5650 5643 5635 5627 5618 5610 5602 5590 5578 5571 5562 5553 5541 5529 5519 5510 5501 5491 5480 5471 5461 5452 5444 5435 5428 5421 5414 5407 5400 5392 5383 5373 5363 5352 5340 5332 5323